Location: White Mills Observatory
(37.5374°N, 86.0303°W)
Time: 17:30:30
(UTC-04:00)

Hubble Space Telescope - Visible Passes

Search period start: 24 August 2016 00:00
Search period end: 03 September 2016 00:00
Orbit: 539 x 543 km, 28.5° (Epoch: 24 August)

Date Brightness Start Highest point End Pass type
(mag) Time Alt. Az. Time Alt. Az. Time Alt. Az.
24 Aug 2.4 21:06:07 10° WSW 21:09:21 22° S 21:12:19 11° SE visible
25 Aug 2.5 20:56:23 10° WSW 20:59:30 21° S 21:02:38 10° SE visible
26 Aug 2.7 20:46:42 10° WSW 20:49:40 19° S 20:52:37 10° SE visible
